Location: Newark
(47.5347°N, 5.5339°E)
Time: 14:51:42
(UTC+00:00)

ISS - Pass Details

Date: 01 October 2019
Orbit: 411 x 421 km, 51.6° (Epoch: 20 October)

Event Time Altitude Azimuth Distance (km) Brightness Sun altitude
Rises 18:30:39 0° 289° (WNW) 2,347 1.9 -13.0°
Reaches altitude 10° 18:32:48 10° 296° (WNW) 1,484 0.3 -13.4°
Maximum altitude 18:36:00 43° 10° (N) 587 -3.1 -13.9°
Enters shadow 18:37:33 25° 68° (ENE) 881 -2.6 -14.2°
